START_TIME,STEP,MOV.,AL01,t_acc.,AL02,t_acc.,E37,t_acc.,H21,t_acc.
1979-07-13 06:00:34.640 ,1,1,1.,24.0,0.,24.0,0.,24.0,0.,24.0
1979-07-13 06:00:58.640 ,2,1,0.,24.0,0.,24.0,0.,24.0,0.,24.0
1979-07-13 06:01:22.640 ,6,1,4.,24.0,0.,24.0,0.,24.0,0.,24.0
1979-07-13 06:01:46.640 ,5,1,18.,24.0,0.,24.0,0.,24.0,0.,24.0
1979-07-13 06:02:10.640 ,1,1,2.,24.0,2.,24.0,0.,24.0,0.,24.0
1979-07-13 06:02:34.640 ,2,1,0.,24.0,0.,24.0,0.,24.0,0.,24.0
1979-07-13 06:02:58.640 ,6,1,3.,24.0,0.,24.0,0.,24.0,0.,24.0
1979-07-13 06:03:22.640 ,5,1,19.,24.0,0.,24.0,0.,24.0,0.,24.0
1979-07-13 06:03:46.640 ,1,1,5.,24.0,2.,24.0,0.,24.0,0.,24.0
1979-07-13 06:04:10.640 ,2,1,1.,24.0,0.,24.0,0.,24.0,0.,24.0
1979-07-13 06:04:34.640 ,6,1,5.,24.0,1.,24.0,0.,24.0,0.,24.0
1979-07-13 06:04:58.640 ,5,1,14.,24.0,0.,24.0,0.,24.0,0.,24.0
1979-07-13 06:05:22.640 ,1,1,5.,24.0,1.,24.0,0.,24.0,0.,24.0
1979-07-13 06:05:46.640 ,0,0,2.,24.0,0.,24.0,0.,24.0,0.,24.0
1979-07-13 06:06:10.640 ,0,0,10.,24.0,0.,24.0,0.,24.0,0.,24.0
1979-07-13 06:06:34.640 ,5,1,16.,24.0,0.,24.0,0.,24.0,0.,24.0
1979-07-13 06:06:58.640 ,5,0,2.,24.0,1.,24.0,0.,24.0,0.,24.0
1979-07-13 06:07:22.640 ,4,1,5.,24.0,2.,24.0,0.,24.0,0.,24.0
1979-07-13 06:07:46.640 ,4,0,4.,24.0,0.,24.0,0.,24.0,0.,24.0
1979-07-13 06:08:10.640 ,3,1,4.,24.0,0.,24.0,0.,24.0,0.,24.0
1979-07-13 06:08:34.640 ,3,0,4.,24.0,0.,24.0,0.,24.0,0.,24.0
1979-07-13 06:08:58.640 ,2,1,0.,24.0,0.,24.0,0.,24.0,0.,24.0
1979-07-13 06:09:22.640 ,2,0,3.,24.0,1.,24.0,0.,24.0,0.,24.0
1979-07-13 06:09:46.640 ,1,1,2.,24.0,2.,24.0,0.,24.0,0.,24.0
1979-07-13 06:10:10.640 ,1,0,1.,24.0,0.,24.0,0.,24.0,0.,24.0
1979-07-13 06:10:34.640 ,0,1,0.,24.0,2.,24.0,0.,24.0,0.,24.0
1979-07-13 06:10:58.640 ,0,0,0.,24.0,0.,24.0,0.,24.0,0.,24.0
1979-07-13 06:11:22.640 ,0,1,1.,24.0,1.,24.0,0.,24.0,0.,24.0
1979-07-13 06:11:46.640 ,0,0,2.,24.0,0.,24.0,0.,24.0,0.,24.0
1979-07-13 06:12:10.640 ,1,1,2.,24.0,2.,24.0,0.,24.0,0.,24.0
1979-07-13 06:12:34.640 ,1,0,4.,24.0,0.,24.0,0.,24.0,0.,24.0
1979-07-13 06:12:58.640 ,2,1,3.,24.0,1.,24.0,0.,24.0,0.,24.0
1979-07-13 06:13:22.640 ,2,0,2.,24.0,0.,24.0,0.,24.0,0.,24.0
1979-07-13 06:13:46.640 ,3,1,2.,24.0,0.,24.0,0.,24.0,0.,24.0
1979-07-13 06:14:10.640 ,3,0,5.,24.0,0.,24.0,0.,24.0,0.,24.0
1979-07-13 06:14:34.640 ,4,1,3.,24.0,0.,24.0,0.,24.0,0.,24.0
1979-07-13 06:14:58.640 ,4,0,3.,24.0,0.,24.0,0.,24.0,0.,24.0
1979-07-13 06:15:22.640 ,5,1,3.,24.0,2.,24.0,0.,24.0,0.,24.0
1979-07-13 06:15:46.640 ,5,0,0.,24.0,0.,24.0,0.,24.0,0.,24.0
1979-07-13 06:16:10.640 ,6,1,2.,24.0,0.,24.0,0.,24.0,0.,24.0
1979-07-13 06:16:34.640 ,6,0,3.,24.0,0.,24.0,0.,24.0,0.,24.0
1979-07-13 06:16:58.640 ,7,1,9.,24.0,0.,24.0,0.,24.0,0.,24.0
1979-07-13 06:17:22.640 ,7,0,29.,24.0,0.,24.0,0.,24.0,0.,24.0
1979-07-13 06:17:46.640 ,7,1,28.,24.0,0.,24.0,0.,24.0,0.,24.0
1979-07-13 06:18:10.640 ,7,0,25.,24.0,0.,24.0,0.,24.0,0.,24.0
1979-07-13 06:18:34.640 ,6,1,21.,24.0,0.,24.0,0.,24.0,0.,24.0
1979-07-13 06:18:58.640 ,6,0,2.,24.0,0.,24.0,0.,24.0,0.,24.0
1979-07-13 06:19:22.640 ,5,1,1.,24.0,0.,24.0,0.,24.0,0.,24.0
1979-07-13 06:19:46.640 ,5,0,5.,24.0,1.,24.0,0.,24.0,0.,24.0
1979-07-13 06:20:10.640 ,4,1,2.,24.0,1.,24.0,0.,24.0,0.,24.0
1979-07-13 06:20:34.640 ,4,0,3.,24.0,1.,24.0,0.,24.0,0.,24.0
1979-07-13 06:20:58.640 ,3,1,7.,24.0,0.,24.0,0.,24.0,0.,24.0
1979-07-13 06:21:22.640 ,3,0,2.,24.0,0.,24.0,0.,24.0,0.,24.0
1979-07-13 06:21:46.640 ,2,1,5.,24.0,2.,24.0,0.,24.0,0.,24.0
1979-07-13 06:22:10.640 ,2,0,4.,24.0,0.,24.0,0.,24.0,0.,24.0
1979-07-13 06:22:34.640 ,1,1,2.,24.0,0.,24.0,0.,24.0,0.,24.0
1979-07-13 06:22:58.640 ,1,0,0.,24.0,0.,24.0,0.,24.0,0.,24.0
1979-07-13 06:23:22.640 ,0,1,0.,24.0,0.,24.0,0.,24.0,0.,24.0
1979-07-13 06:23:46.640 ,0,0,0.,24.0,0.,24.0,0.,24.0,0.,24.0
1979-07-13 06:24:10.640 ,0,1,1.,24.0,1.,24.0,0.,24.0,0.,24.0
1979-07-13 06:24:34.640 ,0,0,2.,24.0,1.,24.0,0.,24.0,0.,24.0
1979-07-13 06:24:58.640 ,1,1,1.,24.0,0.,24.0,0.,24.0,0.,24.0
1979-07-13 06:25:22.640 ,1,0,1.,24.0,1.,24.0,0.,24.0,0.,24.0
1979-07-13 06:25:46.640 ,2,1,2.,24.0,1.,24.0,0.,24.0,0.,24.0
1979-07-13 06:26:10.640 ,2,0,0.,24.0,0.,24.0,0.,24.0,0.,24.0
1979-07-13 06:26:34.640 ,3,1,4.,24.0,0.,24.0,0.,24.0,0.,24.0
1979-07-13 06:26:58.640 ,3,0,1.,24.0,0.,24.0,0.,24.0,0.,24.0
1979-07-13 06:27:22.640 ,4,1,0.,24.0,0.,24.0,0.,24.0,0.,24.0
1979-07-13 06:27:46.640 ,4,0,0.,24.0,0.,24.0,0.,24.0,0.,24.0
1979-07-13 06:28:10.640 ,5,1,2.,24.0,1.,24.0,0.,24.0,0.,24.0
1979-07-13 06:28:34.640 ,5,0,1.,24.0,1.,24.0,0.,24.0,0.,24.0
1979-07-13 06:28:58.640 ,6,1,1.,24.0,0.,24.0,0.,24.0,0.,24.0
1979-07-13 06:29:22.640 ,6,0,0.,24.0,0.,24.0,0.,24.0,0.,24.0
1979-07-13 06:29:46.640 ,7,1,12.,24.0,0.,24.0,0.,24.0,0.,24.0
1979-07-13 06:30:10.640 ,7,0,32.,24.0,0.,24.0,0.,24.0,0.,24.0
1979-07-13 06:30:34.640 ,7,1,30.,24.0,0.,24.0,0.,24.0,0.,24.0
1979-07-13 06:30:58.640 ,7,0,31.,24.0,0.,24.0,0.,24.0,0.,24.0
1979-07-13 06:31:22.640 ,6,1,19.,24.0,0.,24.0,0.,24.0,0.,24.0
1979-07-13 06:31:46.640 ,6,0,1.,24.0,0.,24.0,0.,24.0,0.,24.0
1979-07-13 06:32:10.640 ,5,1,1.,24.0,0.,24.0,0.,24.0,0.,24.0
1979-07-13 06:32:34.640 ,5,0,1.,24.0,0.,24.0,0.,24.0,0.,24.0
1979-07-13 06:32:58.640 ,4,1,3.,24.0,1.,24.0,0.,24.0,0.,24.0
1979-07-13 06:33:22.640 ,4,0,0.,24.0,0.,24.0,0.,24.0,0.,24.0
1979-07-13 06:33:46.640 ,3,1,1.,24.0,0.,24.0,0.,24.0,0.,24.0
1979-07-13 06:34:10.640 ,3,0,1.,24.0,0.,24.0,0.,24.0,0.,24.0
1979-07-13 06:34:34.640 ,2,1,0.,24.0,0.,24.0,0.,24.0,0.,24.0
1979-07-13 06:34:58.640 ,2,0,1.,24.0,0.,24.0,0.,24.0,0.,24.0
1979-07-13 06:35:22.640 ,1,1,2.,24.0,0.,24.0,0.,24.0,0.,24.0
1979-07-13 06:35:46.640 ,1,0,3.,24.0,0.,24.0,0.,24.0,0.,24.0
1979-07-13 06:36:10.640 ,0,1,1.,24.0,0.,24.0,0.,24.0,0.,24.0
1979-07-13 06:36:34.640 ,0,0,2.,24.0,0.,24.0,0.,24.0,0.,24.0
1979-07-13 06:36:58.640 ,0,1,0.,24.0,0.,24.0,0.,24.0,0.,24.0
1979-07-13 06:37:22.640 ,0,0,1.,24.0,0.,24.0,0.,24.0,0.,24.0
1979-07-13 06:37:46.640 ,1,1,3.,24.0,0.,24.0,0.,24.0,0.,24.0
1979-07-13 06:38:10.640 ,1,0,0.,24.0,0.,24.0,0.,24.0,0.,24.0
1979-07-13 06:38:34.640 ,2,1,1.,24.0,0.,24.0,0.,24.0,0.,24.0
1979-07-13 06:38:58.640 ,2,0,3.,24.0,1.,24.0,0.,24.0,0.,24.0
1979-07-13 06:39:22.640 ,3,1,2.,24.0,0.,24.0,0.,24.0,0.,24.0
1979-07-13 06:39:46.640 ,3,0,0.,24.0,0.,24.0,0.,24.0,0.,24.0
1979-07-13 06:40:10.640 ,4,1,1.,24.0,1.,24.0,0.,24.0,0.,24.0
1979-07-13 06:40:34.640 ,4,0,0.,24.0,1.,24.0,0.,24.0,0.,24.0
1979-07-13 06:40:58.640 ,5,1,3.,24.0,1.,24.0,0.,24.0,0.,24.0
1979-07-13 06:41:22.640 ,5,0,2.,24.0,0.,24.0,0.,24.0,0.,24.0
1979-07-13 06:41:46.640 ,6,1,1.,24.0,0.,24.0,0.,24.0,0.,24.0
1979-07-13 06:42:10.640 ,6,0,1.,24.0,0.,24.0,0.,24.0,0.,24.0
1979-07-13 06:42:34.640 ,7,0,12.,24.0,0.,24.0,0.,24.0,0.,24.0
1979-07-13 06:42:58.640 ,7,0,40.,24.0,0.,24.0,0.,24.0,0.,24.0
1979-07-13 06:43:22.640 ,5,1,18.,24.0,0.,24.0,0.,24.0,0.,24.0
1979-07-13 06:43:46.640 ,1,1,4.,24.0,1.,24.0,0.,24.0,0.,24.0
1979-07-13 06:44:10.640 ,2,1,5.,24.0,1.,24.0,0.,24.0,0.,24.0
1979-07-13 06:44:34.640 ,6,1,4.,24.0,1.,24.0,0.,24.0,0.,24.0
1979-07-13 06:44:58.640 ,5,1,15.,24.0,0.,24.0,0.,24.0,0.,24.0
1979-07-13 06:45:22.640 ,1,1,1.,24.0,1.,24.0,0.,24.0,0.,24.0
1979-07-13 06:45:46.640 ,2,1,2.,24.0,2.,24.0,0.,24.0,0.,24.0
1979-07-13 06:46:10.640 ,6,1,2.,24.0,2.,24.0,0.,24.0,0.,24.0
1979-07-13 06:46:34.640 ,5,1,19.,24.0,0.,24.0,0.,24.0,0.,24.0
1979-07-13 06:46:58.640 ,1,1,3.,24.0,0.,24.0,0.,24.0,0.,24.0
1979-07-13 06:47:22.640 ,2,1,2.,24.0,1.,24.0,0.,24.0,0.,24.0
1979-07-13 06:47:46.640 ,6,1,11.,24.0,2.,24.0,0.,24.0,0.,24.0
1979-07-13 06:48:10.640 ,5,1,18.,24.0,0.,24.0,0.,24.0,0.,24.0
1979-07-13 06:48:34.640 ,1,1,12.,24.0,4.,24.0,0.,24.0,0.,24.0
1979-07-13 06:48:58.640 ,2,1,7.,24.0,2.,24.0,0.,24.0,0.,24.0
1979-07-13 06:49:22.640 ,6,1,6.,24.0,0.,24.0,0.,24.0,0.,24.0
1979-07-13 06:49:46.640 ,5,1,27.,24.0,2.,24.0,0.,24.0,0.,24.0
1979-07-13 06:50:10.640 ,1,1,12.,24.0,3.,24.0,0.,24.0,0.,24.0
1979-07-13 06:50:34.640 ,2,1,11.,24.0,3.,24.0,0.,24.0,0.,24.0
1979-07-13 06:50:58.640 ,6,1,10.,24.0,1.,24.0,0.,24.0,0.,24.0
1979-07-13 06:51:22.640 ,5,1,30.,24.0,0.,24.0,0.,24.0,0.,24.0
1979-07-13 06:51:46.640 ,1,1,16.,24.0,1.,24.0,0.,24.0,0.,24.0
1979-07-13 06:52:10.640 ,2,1,10.,24.0,4.,24.0,0.,24.0,0.,24.0
1979-07-13 06:52:34.640 ,6,1,12.,24.0,3.,24.0,0.,24.0,0.,24.0
1979-07-13 06:52:58.640 ,0,0,21.,24.0,2.,24.0,0.,24.0,0.,24.0
1979-07-13 06:53:22.640 ,0,0,,0,,0,,0,,0
1979-07-13 06:53:34.640 ,0,0,,0,,0,,0,,0
1979-07-13 06:53:46.640 ,0,0,7.,24.0,4.,24.0,0.,24.0,0.,24.0
1979-07-13 06:54:10.640 ,0,0,27.,24.0,5.,24.0,0.,24.0,0.,24.0
1979-07-13 06:54:34.640 ,5,1,27.,24.0,1.,24.0,0.,24.0,0.,24.0
1979-07-13 06:54:58.640 ,5,0,32.,24.0,6.,24.0,0.,24.0,0.,24.0
1979-07-13 06:55:22.640 ,4,1,28.,24.0,6.,24.0,0.,24.0,0.,24.0
1979-07-13 06:55:46.640 ,4,0,28.,24.0,8.,24.0,0.,24.0,0.,24.0
1979-07-13 06:56:10.640 ,3,1,19.,24.0,1.,24.0,0.,24.0,0.,24.0
1979-07-13 06:56:34.640 ,3,0,11.,24.0,3.,24.0,0.,24.0,0.,24.0
1979-07-13 06:56:58.640 ,2,1,18.,24.0,1.,24.0,0.,24.0,0.,24.0
1979-07-13 06:57:22.640 ,2,0,30.,24.0,2.,24.0,0.,24.0,0.,24.0
1979-07-13 06:57:46.640 ,1,1,30.,24.0,3.,24.0,0.,24.0,0.,24.0
1979-07-13 06:58:10.640 ,1,0,16.,24.0,1.,24.0,0.,24.0,0.,24.0
1979-07-13 06:58:34.640 ,0,1,10.,24.0,3.,24.0,0.,24.0,0.,24.0
1979-07-13 06:58:58.640 ,0,0,4.,24.0,0.,24.0,0.,24.0,0.,24.0
1979-07-13 06:59:22.640 ,0,1,4.,24.0,2.,24.0,0.,24.0,0.,24.0
1979-07-13 06:59:46.640 ,0,0,6.,24.0,0.,24.0,0.,24.0,0.,24.0
1979-07-13 07:00:10.640 ,1,1,6.,24.0,1.,24.0,0.,24.0,0.,24.0
1979-07-13 07:00:34.640 ,1,0,9.,24.0,3.,24.0,0.,24.0,0.,24.0
1979-07-13 07:00:58.640 ,2,1,14.,24.0,1.,24.0,0.,24.0,0.,24.0
1979-07-13 07:01:22.640 ,2,0,16.,24.0,7.,24.0,0.,24.0,0.,24.0
1979-07-13 07:01:46.640 ,3,1,16.,24.0,5.,24.0,0.,24.0,0.,24.0
1979-07-13 07:02:10.640 ,3,0,16.,24.0,3.,24.0,0.,24.0,0.,24.0
1979-07-13 07:02:34.640 ,4,1,15.,24.0,0.,24.0,0.,24.0,0.,24.0
1979-07-13 07:02:58.640 ,4,0,13.,24.0,5.,24.0,0.,24.0,0.,24.0
1979-07-13 07:03:22.640 ,5,1,12.,24.0,3.,24.0,0.,24.0,0.,24.0
1979-07-13 07:03:46.640 ,5,0,19.,24.0,4.,24.0,0.,24.0,0.,24.0
1979-07-13 07:04:10.640 ,6,1,22.,24.0,2.,24.0,0.,24.0,0.,24.0
1979-07-13 07:04:34.640 ,6,0,20.,24.0,1.,24.0,0.,24.0,0.,24.0
1979-07-13 07:04:58.640 ,7,1,19.,24.0,0.,24.0,0.,24.0,0.,24.0
1979-07-13 07:05:22.640 ,7,0,32.,24.0,0.,24.0,0.,24.0,0.,24.0
1979-07-13 07:05:46.640 ,7,1,27.,24.0,0.,24.0,0.,24.0,0.,24.0
1979-07-13 07:06:10.640 ,7,0,26.,24.0,0.,24.0,0.,24.0,0.,24.0
1979-07-13 07:06:34.640 ,6,1,31.,24.0,2.,24.0,0.,24.0,0.,24.0
1979-07-13 07:06:58.640 ,6,0,6.,24.0,1.,24.0,0.,24.0,0.,24.0
1979-07-13 07:07:22.640 ,5,1,19.,24.0,0.,24.0,0.,24.0,0.,24.0
1979-07-13 07:07:46.640 ,5,0,25.,24.0,2.,24.0,0.,24.0,0.,24.0
1979-07-13 07:08:10.640 ,4,1,18.,24.0,2.,24.0,0.,24.0,0.,24.0
1979-07-13 07:08:34.640 ,4,0,17.,24.0,1.,24.0,0.,24.0,0.,24.0
1979-07-13 07:08:58.640 ,3,1,20.,24.0,2.,24.0,0.,24.0,0.,24.0
1979-07-13 07:09:22.640 ,3,0,23.,24.0,3.,24.0,0.,24.0,0.,24.0
1979-07-13 07:09:46.640 ,2,1,30.,24.0,3.,24.0,0.,24.0,0.,24.0
1979-07-13 07:10:10.640 ,2,0,24.,24.0,7.,24.0,0.,24.0,0.,24.0
1979-07-13 07:10:34.640 ,1,1,20.,24.0,8.,24.0,0.,24.0,0.,24.0
1979-07-13 07:10:58.640 ,1,0,8.,24.0,4.,24.0,0.,24.0,0.,24.0
1979-07-13 07:11:22.640 ,0,1,14.,24.0,2.,24.0,0.,24.0,0.,24.0
1979-07-13 07:11:46.640 ,0,0,5.,24.0,0.,24.0,0.,24.0,0.,24.0
1979-07-13 07:12:10.640 ,0,1,7.,24.0,3.,24.0,0.,24.0,0.,24.0
1979-07-13 07:12:34.640 ,0,0,10.,24.0,0.,24.0,0.,24.0,0.,24.0
1979-07-13 07:12:58.640 ,1,1,10.,24.0,2.,24.0,0.,24.0,0.,24.0
1979-07-13 07:13:22.640 ,1,0,17.,24.0,0.,24.0,0.,24.0,0.,24.0
1979-07-13 07:13:46.640 ,2,1,23.,24.0,5.,24.0,0.,24.0,0.,24.0
1979-07-13 07:14:10.640 ,2,0,19.,24.0,3.,24.0,0.,24.0,0.,24.0
1979-07-13 07:14:34.640 ,3,1,18.,24.0,7.,24.0,0.,24.0,0.,24.0
1979-07-13 07:14:58.640 ,3,0,2.,24.0,0.,24.0,0.,24.0,0.,24.0
1979-07-13 07:15:22.640 ,4,1,4.,24.0,0.,24.0,0.,24.0,0.,24.0
1979-07-13 07:15:46.640 ,4,0,5.,24.0,1.,24.0,0.,24.0,0.,24.0
1979-07-13 07:16:10.640 ,5,1,6.,24.0,1.,24.0,0.,24.0,0.,24.0
1979-07-13 07:16:34.640 ,5,0,8.,24.0,2.,24.0,0.,24.0,0.,24.0
1979-07-13 07:16:58.640 ,6,1,14.,24.0,2.,24.0,0.,24.0,0.,24.0
1979-07-13 07:17:22.640 ,6,0,5.,24.0,3.,24.0,0.,24.0,0.,24.0
1979-07-13 07:17:46.640 ,7,1,14.,24.0,3.,24.0,0.,24.0,0.,24.0
1979-07-13 07:18:10.640 ,7,0,26.,24.0,0.,24.0,0.,24.0,0.,24.0
1979-07-13 07:18:34.640 ,7,1,30.,24.0,0.,24.0,0.,24.0,0.,24.0
1979-07-13 07:18:58.640 ,7,0,29.,24.0,0.,24.0,0.,24.0,0.,24.0
1979-07-13 07:19:22.640 ,6,1,22.,24.0,1.,24.0,0.,24.0,0.,24.0
1979-07-13 07:19:46.640 ,6,0,6.,24.0,0.,24.0,0.,24.0,0.,24.0
1979-07-13 07:20:10.640 ,5,1,5.,24.0,4.,24.0,0.,24.0,0.,24.0
1979-07-13 07:20:34.640 ,5,0,7.,24.0,2.,24.0,0.,24.0,0.,24.0
1979-07-13 07:20:58.640 ,4,1,7.,24.0,1.,24.0,0.,24.0,0.,24.0
1979-07-13 07:21:22.640 ,4,0,3.,24.0,0.,24.0,0.,24.0,0.,24.0
1979-07-13 07:21:46.640 ,3,1,2.,24.0,2.,24.0,0.,24.0,0.,24.0
1979-07-13 07:22:10.640 ,3,0,3.,24.0,0.,24.0,0.,24.0,0.,24.0
1979-07-13 07:22:34.640 ,2,1,4.,24.0,0.,24.0,0.,24.0,0.,24.0
1979-07-13 07:22:58.640 ,2,0,4.,24.0,1.,24.0,0.,24.0,0.,24.0
1979-07-13 07:23:22.640 ,1,1,1.,24.0,0.,24.0,0.,24.0,0.,24.0
1979-07-13 07:23:46.640 ,1,0,0.,24.0,0.,24.0,0.,24.0,0.,24.0
1979-07-13 07:24:10.640 ,0,1,0.,24.0,0.,24.0,0.,24.0,0.,24.0
1979-07-13 07:24:34.640 ,0,0,2.,24.0,0.,24.0,0.,24.0,0.,24.0
1979-07-13 07:24:58.640 ,0,1,1.,24.0,1.,24.0,0.,24.0,0.,24.0
1979-07-13 07:25:22.640 ,0,0,0.,24.0,0.,24.0,0.,24.0,0.,24.0
1979-07-13 07:26:34.640 ,0,0,4.,24.0,1.,24.0,0.,24.0,0.,24.0
1979-07-13 07:26:58.640 ,0,0,6.,24.0,0.,24.0,0.,24.0,0.,24.0
1979-07-13 07:27:22.640 ,3,1,7.,24.0,2.,24.0,0.,24.0,0.,24.0
1979-07-13 07:27:46.640 ,3,0,9.,24.0,2.,24.0,0.,24.0,0.,24.0
1979-07-13 07:28:10.640 ,4,1,10.,24.0,1.,24.0,0.,24.0,0.,24.0
1979-07-13 07:28:34.640 ,4,0,33.,24.0,8.,24.0,0.,24.0,0.,24.0
1979-07-13 07:28:58.640 ,5,1,29.,24.0,9.,24.0,0.,24.0,0.,24.0
1979-07-13 07:29:22.640 ,5,0,27.,24.0,1.,24.0,0.,24.0,0.,24.0
1979-07-13 07:29:46.640 ,6,1,25.,24.0,5.,24.0,0.,24.0,0.,24.0
1979-07-13 07:30:10.640 ,6,0,20.,24.0,0.,24.0,0.,24.0,0.,24.0
1979-07-13 07:30:34.640 ,7,0,14.,24.0,1.,24.0,0.,24.0,0.,24.0
1979-07-13 07:30:58.640 ,7,0,31.,24.0,0.,24.0,0.,24.0,0.,24.0
1979-07-13 07:31:22.640 ,5,1,32.,24.0,2.,24.0,0.,24.0,0.,24.0
1979-07-13 07:31:46.640 ,1,1,15.,24.0,1.,24.0,0.,24.0,0.,24.0
1979-07-13 07:32:10.640 ,2,1,13.,24.0,4.,24.0,0.,24.0,0.,24.0
1979-07-13 07:32:34.640 ,6,1,25.,24.0,4.,24.0,0.,24.0,0.,24.0
1979-07-13 07:32:58.640 ,5,1,21.,24.0,2.,24.0,0.,24.0,0.,24.0
1979-07-13 07:33:22.640 ,1,1,21.,24.0,3.,24.0,0.,24.0,0.,24.0
1979-07-13 07:33:46.640 ,2,1,9.,24.0,1.,24.0,0.,24.0,0.,24.0
1979-07-13 07:34:10.640 ,6,1,26.,24.0,1.,24.0,0.,24.0,0.,24.0
1979-07-13 07:34:34.640 ,5,1,23.,24.0,1.,24.0,0.,24.0,0.,24.0
1979-07-13 07:34:58.640 ,1,1,26.,24.0,1.,24.0,0.,24.0,0.,24.0
1979-07-13 07:35:22.640 ,2,1,11.,24.0,1.,24.0,0.,24.0,0.,24.0
1979-07-13 07:35:46.640 ,6,1,27.,24.0,5.,24.0,0.,24.0,0.,24.0
1979-07-13 07:36:10.640 ,5,1,32.,24.0,1.,24.0,0.,24.0,0.,24.0
1979-07-13 07:36:34.640 ,1,1,27.,24.0,5.,24.0,0.,24.0,0.,24.0
1979-07-13 07:36:58.640 ,2,1,6.,24.0,0.,24.0,0.,24.0,0.,24.0
1979-07-13 07:37:22.640 ,6,1,17.,24.0,3.,24.0,0.,24.0,0.,24.0
1979-07-13 07:37:46.640 ,5,1,15.,24.0,2.,24.0,0.,24.0,0.,24.0
1979-07-13 07:38:10.640 ,1,1,12.,24.0,2.,24.0,0.,24.0,0.,24.0
1979-07-13 07:38:34.640 ,2,1,7.,24.0,3.,24.0,0.,24.0,0.,24.0
1979-07-13 07:38:58.640 ,6,1,33.,24.0,1.,24.0,0.,24.0,0.,24.0
1979-07-13 07:39:22.640 ,5,1,33.,24.0,3.,24.0,0.,24.0,0.,24.0
1979-07-13 07:39:46.640 ,1,1,22.,24.0,4.,24.0,0.,24.0,0.,24.0
1979-07-13 07:40:10.640 ,2,1,11.,24.0,2.,24.0,0.,24.0,0.,24.0
1979-07-13 07:40:34.640 ,6,1,22.,24.0,2.,24.0,0.,24.0,0.,24.0
1979-07-13 07:40:58.640 ,5,1,23.,24.0,0.,24.0,0.,24.0,0.,24.0
1979-07-13 07:41:22.640 ,1,1,15.,24.0,3.,24.0,0.,24.0,0.,24.0
1979-07-13 07:41:46.640 ,0,0,7.,24.0,0.,24.0,0.,24.0,0.,24.0
1979-07-13 07:42:10.640 ,0,0,19.,24.0,4.,24.0,0.,24.0,0.,24.0
1979-07-13 07:42:34.640 ,5,1,18.,24.0,0.,24.0,0.,24.0,0.,24.0
1979-07-13 07:42:58.640 ,5,0,6.,24.0,4.,24.0,0.,24.0,0.,24.0
1979-07-13 07:43:22.640 ,4,1,11.,24.0,4.,24.0,0.,24.0,0.,24.0
1979-07-13 07:43:46.640 ,4,0,18.,24.0,4.,24.0,0.,24.0,0.,24.0
1979-07-13 07:44:10.640 ,3,1,6.,24.0,1.,24.0,0.,24.0,0.,24.0
1979-07-13 07:44:34.640 ,3,0,5.,24.0,0.,24.0,0.,24.0,0.,24.0
1979-07-13 07:44:58.640 ,2,1,6.,24.0,1.,24.0,0.,24.0,0.,24.0
1979-07-13 07:45:22.640 ,2,0,8.,24.0,1.,24.0,0.,24.0,0.,24.0
1979-07-13 07:45:46.640 ,1,1,9.,24.0,1.,24.0,0.,24.0,0.,24.0
1979-07-13 07:46:10.640 ,1,0,5.,24.0,2.,24.0,0.,24.0,0.,24.0
1979-07-13 07:46:34.640 ,0,1,5.,24.0,0.,24.0,0.,24.0,0.,24.0
1979-07-13 07:46:58.640 ,0,0,0.,24.0,0.,24.0,0.,24.0,0.,24.0
1979-07-13 07:47:22.640 ,0,1,0.,24.0,0.,24.0,0.,24.0,0.,24.0
1979-07-13 07:47:46.640 ,0,0,1.,24.0,0.,24.0,0.,24.0,0.,24.0
1979-07-13 07:48:10.640 ,1,1,3.,24.0,1.,24.0,0.,24.0,0.,24.0
1979-07-13 07:48:34.640 ,1,0,0.,24.0,0.,24.0,0.,24.0,0.,24.0
1979-07-13 07:48:58.640 ,2,1,2.,24.0,1.,24.0,0.,24.0,0.,24.0
1979-07-13 07:49:22.640 ,2,0,2.,24.0,1.,24.0,0.,24.0,0.,24.0
1979-07-13 07:49:46.640 ,3,1,2.,24.0,0.,24.0,0.,24.0,0.,24.0
1979-07-13 07:50:10.640 ,3,0,2.,24.0,0.,24.0,0.,24.0,0.,24.0
1979-07-13 07:50:34.640 ,4,1,1.,24.0,1.,24.0,0.,24.0,0.,24.0
1979-07-13 07:50:58.640 ,4,0,0.,24.0,1.,24.0,0.,24.0,0.,24.0
1979-07-13 07:51:22.640 ,5,1,1.,24.0,0.,24.0,0.,24.0,0.,24.0
1979-07-13 07:51:46.640 ,5,0,2.,24.0,1.,24.0,0.,24.0,0.,24.0
1979-07-13 07:52:10.640 ,6,1,4.,24.0,1.,24.0,0.,24.0,0.,24.0
1979-07-13 07:52:34.640 ,6,0,2.,24.0,1.,24.0,0.,24.0,0.,24.0
1979-07-13 07:52:58.640 ,7,1,6.,24.0,0.,24.0,0.,24.0,0.,24.0
1979-07-13 07:53:22.640 ,7,0,32.,24.0,1.,24.0,0.,24.0,0.,24.0
1979-07-13 07:53:46.640 ,7,1,28.,24.0,0.,24.0,0.,24.0,0.,24.0
1979-07-13 07:54:10.640 ,7,0,36.,24.0,0.,24.0,0.,24.0,0.,24.0
1979-07-13 07:54:34.640 ,6,1,21.,24.0,0.,24.0,0.,24.0,0.,24.0
1979-07-13 07:54:58.640 ,6,0,1.,24.0,1.,24.0,0.,24.0,0.,24.0
1979-07-13 07:55:22.640 ,5,1,5.,24.0,1.,24.0,0.,24.0,0.,24.0
1979-07-13 07:55:46.640 ,5,0,1.,24.0,2.,24.0,0.,24.0,0.,24.0
1979-07-13 07:56:10.640 ,4,1,1.,24.0,1.,24.0,0.,24.0,0.,24.0
1979-07-13 07:56:34.640 ,4,0,4.,24.0,1.,24.0,0.,24.0,0.,24.0
1979-07-13 07:56:58.640 ,3,1,1.,24.0,1.,24.0,0.,24.0,0.,24.0
1979-07-13 07:57:22.640 ,3,0,1.,24.0,0.,24.0,0.,24.0,0.,24.0
1979-07-13 07:57:46.640 ,2,1,4.,24.0,0.,24.0,0.,24.0,0.,24.0
1979-07-13 07:58:10.640 ,2,0,0.,24.0,0.,24.0,0.,24.0,0.,24.0
1979-07-13 07:58:34.640 ,1,1,0.,24.0,0.,24.0,0.,24.0,0.,24.0
1979-07-13 07:58:58.640 ,1,0,2.,24.0,0.,24.0,0.,24.0,0.,24.0
1979-07-13 07:59:22.640 ,0,1,0.,24.0,0.,24.0,0.,24.0,0.,24.0
1979-07-13 07:59:46.640 ,0,0,1.,24.0,0.,24.0,0.,24.0,0.,24.0
1979-07-13 08:00:10.640 ,0,1,0.,24.0,0.,24.0,0.,24.0,0.,24.0
1979-07-13 08:00:34.640 ,0,0,1.,24.0,1.,24.0,0.,24.0,0.,24.0
1979-07-13 08:00:58.640 ,1,1,1.,24.0,0.,24.0,0.,24.0,0.,24.0
1979-07-13 08:01:22.640 ,1,0,2.,24.0,0.,24.0,0.,24.0,0.,24.0
1979-07-13 08:01:46.640 ,2,1,1.,24.0,1.,24.0,0.,24.0,0.,24.0
1979-07-13 08:02:10.640 ,2,0,0.,24.0,0.,24.0,0.,24.0,0.,24.0
1979-07-13 08:02:34.640 ,3,1,3.,24.0,1.,24.0,0.,24.0,0.,24.0
1979-07-13 08:02:58.640 ,3,0,8.,24.0,1.,24.0,0.,24.0,0.,24.0
1979-07-13 08:03:22.640 ,4,1,10.,24.0,3.,24.0,0.,24.0,0.,24.0
1979-07-13 08:03:46.640 ,4,0,15.,24.0,2.,24.0,0.,24.0,0.,24.0
1979-07-13 08:04:10.640 ,5,1,23.,24.0,4.,24.0,0.,24.0,0.,24.0
1979-07-13 08:04:34.640 ,5,0,29.,24.0,2.,24.0,0.,24.0,0.,24.0
1979-07-13 08:04:58.640 ,6,1,18.,24.0,3.,24.0,0.,24.0,0.,24.0
1979-07-13 08:05:22.640 ,6,0,17.,24.0,1.,24.0,0.,24.0,0.,24.0
1979-07-13 08:05:46.640 ,7,1,18.,24.0,3.,24.0,0.,24.0,0.,24.0
1979-07-13 08:06:10.640 ,7,0,27.,24.0,0.,24.0,0.,24.0,0.,24.0
1979-07-13 08:06:34.640 ,7,1,31.,24.0,0.,24.0,0.,24.0,0.,24.0
1979-07-13 08:06:58.640 ,7,0,24.,24.0,0.,24.0,0.,24.0,0.,24.0
1979-07-13 08:07:22.640 ,6,1,30.,24.0,0.,24.0,0.,24.0,0.,24.0
1979-07-13 08:07:46.640 ,6,0,13.,24.0,3.,24.0,0.,24.0,0.,24.0
1979-07-13 08:08:10.640 ,5,1,13.,24.0,3.,24.0,0.,24.0,0.,24.0
1979-07-13 08:08:34.640 ,5,0,19.,24.0,7.,24.0,0.,24.0,0.,24.0
1979-07-13 08:08:58.640 ,4,1,21.,24.0,7.,24.0,0.,24.0,0.,24.0
1979-07-13 08:09:22.640 ,4,0,31.,24.0,3.,24.0,0.,24.0,0.,24.0
1979-07-13 08:09:46.640 ,3,1,21.,24.0,2.,24.0,0.,24.0,0.,24.0
1979-07-13 08:10:10.640 ,3,0,24.,24.0,2.,24.0,0.,24.0,0.,24.0
1979-07-13 08:10:34.640 ,2,1,18.,24.0,1.,24.0,0.,24.0,0.,24.0
1979-07-13 08:10:58.640 ,2,0,14.,24.0,2.,24.0,0.,24.0,0.,24.0
1979-07-13 08:11:22.640 ,1,1,19.,24.0,2.,24.0,0.,24.0,0.,24.0
1979-07-13 08:11:46.640 ,1,0,10.,24.0,3.,24.0,0.,24.0,0.,24.0
1979-07-13 08:12:10.640 ,0,1,17.,24.0,2.,24.0,0.,24.0,0.,24.0
1979-07-13 08:12:34.640 ,0,0,9.,24.0,1.,24.0,0.,24.0,0.,24.0
1979-07-13 08:12:58.640 ,0,1,9.,24.0,2.,24.0,0.,24.0,0.,24.0
1979-07-13 08:13:22.640 ,0,0,8.,24.0,0.,24.0,0.,24.0,0.,24.0
1979-07-13 08:13:46.640 ,1,1,10.,24.0,1.,24.0,0.,24.0,0.,24.0
1979-07-13 08:14:10.640 ,1,0,14.,24.0,1.,24.0,0.,24.0,0.,24.0
1979-07-13 08:14:34.640 ,2,1,15.,24.0,4.,24.0,0.,24.0,0.,24.0
1979-07-13 08:14:58.640 ,2,0,9.,24.0,7.,24.0,0.,24.0,0.,24.0
1979-07-13 08:15:22.640 ,3,1,13.,24.0,4.,24.0,0.,24.0,0.,24.0
1979-07-13 08:15:46.640 ,3,0,26.,24.0,8.,24.0,0.,24.0,0.,24.0
1979-07-13 08:16:10.640 ,4,1,37.,24.0,5.,24.0,0.,24.0,0.,24.0
1979-07-13 08:16:34.640 ,4,0,43.,24.0,7.,24.0,0.,24.0,0.,24.0
1979-07-13 08:16:58.640 ,5,1,31.,24.0,6.,24.0,0.,24.0,0.,24.0
1979-07-13 08:17:22.640 ,5,0,27.,24.0,2.,24.0,0.,24.0,0.,24.0
1979-07-13 08:17:46.640 ,6,1,26.,24.0,3.,24.0,0.,24.0,0.,24.0
1979-07-13 08:18:10.640 ,6,0,22.,24.0,2.,24.0,0.,24.0,0.,24.0
1979-07-13 08:18:34.640 ,7,0,18.,24.0,5.,24.0,0.,24.0,0.,24.0
1979-07-13 08:18:58.640 ,7,0,30.,24.0,0.,24.0,0.,24.0,0.,24.0
1979-07-13 08:19:22.640 ,5,1,28.,24.0,1.,24.0,0.,24.0,0.,24.0
1979-07-13 08:19:46.640 ,1,1,16.,24.0,1.,24.0,0.,24.0,0.,24.0
1979-07-13 08:20:10.640 ,2,1,8.,24.0,2.,24.0,0.,24.0,0.,24.0
1979-07-13 08:20:34.640 ,6,1,15.,24.0,3.,24.0,0.,24.0,0.,24.0
1979-07-13 08:20:58.640 ,5,1,32.,24.0,1.,24.0,0.,24.0,0.,24.0
1979-07-13 08:21:22.640 ,1,1,12.,24.0,6.,24.0,0.,24.0,0.,24.0
1979-07-13 08:21:46.640 ,2,1,3.,24.0,0.,24.0,0.,24.0,0.,24.0
1979-07-13 08:22:10.640 ,6,1,23.,24.0,3.,24.0,0.,24.0,0.,24.0
1979-07-13 08:22:34.640 ,5,1,21.,24.0,2.,24.0,0.,24.0,0.,24.0
1979-07-13 08:22:58.640 ,1,1,13.,24.0,5.,24.0,0.,24.0,0.,24.0
1979-07-13 08:23:22.640 ,2,1,8.,24.0,0.,24.0,0.,24.0,0.,24.0
1979-07-13 08:23:46.640 ,6,1,18.,24.0,5.,24.0,0.,24.0,0.,24.0
1979-07-13 08:24:10.640 ,5,1,17.,24.0,3.,24.0,0.,24.0,0.,24.0
1979-07-13 08:24:34.640 ,1,1,9.,24.0,1.,24.0,0.,24.0,0.,24.0
1979-07-13 08:24:58.640 ,2,1,7.,24.0,2.,24.0,0.,24.0,0.,24.0
1979-07-13 08:25:22.640 ,6,1,5.,24.0,0.,24.0,0.,24.0,0.,24.0
1979-07-13 08:25:46.640 ,5,1,13.,24.0,4.,24.0,0.,24.0,0.,24.0
1979-07-13 08:26:10.640 ,1,1,12.,24.0,1.,24.0,0.,24.0,0.,24.0
1979-07-13 08:26:34.640 ,2,1,4.,24.0,2.,24.0,0.,24.0,0.,24.0
1979-07-13 08:26:58.640 ,6,1,12.,24.0,1.,24.0,0.,24.0,0.,24.0
1979-07-13 08:27:22.640 ,5,1,26.,24.0,2.,24.0,0.,24.0,0.,24.0
1979-07-13 08:27:46.640 ,1,1,11.,24.0,3.,24.0,0.,24.0,0.,24.0
1979-07-13 08:28:10.640 ,2,1,1.,24.0,0.,24.0,0.,24.0,0.,24.0
1979-07-13 08:28:34.640 ,6,1,7.,24.0,0.,24.0,0.,24.0,0.,24.0
1979-07-13 08:28:58.640 ,5,1,14.,24.0,1.,24.0,0.,24.0,0.,24.0
1979-07-13 08:29:22.640 ,1,1,10.,24.0,1.,24.0,0.,24.0,0.,24.0
1979-07-13 08:29:46.640 ,0,0,2.,24.0,1.,24.0,0.,24.0,0.,24.0
1979-07-13 08:30:10.640 ,0,0,9.,24.0,1.,24.0,0.,24.0,0.,24.0
1979-07-13 08:30:34.640 ,5,1,14.,24.0,0.,24.0,0.,24.0,0.,24.0
1979-07-13 08:30:58.640 ,5,0,11.,24.0,1.,24.0,0.,24.0,0.,24.0
1979-07-13 08:31:22.640 ,4,1,10.,24.0,3.,24.0,0.,24.0,0.,24.0
1979-07-13 08:31:46.640 ,4,0,8.,24.0,2.,24.0,0.,24.0,0.,24.0
1979-07-13 08:32:10.640 ,3,1,6.,24.0,1.,24.0,0.,24.0,0.,24.0
1979-07-13 08:32:34.640 ,3,0,5.,24.0,2.,24.0,0.,24.0,0.,24.0
1979-07-13 08:32:58.640 ,2,1,4.,24.0,1.,24.0,0.,24.0,0.,24.0
1979-07-13 08:33:22.640 ,2,0,3.,24.0,0.,24.0,0.,24.0,0.,24.0
1979-07-13 08:33:46.640 ,1,1,2.,24.0,1.,24.0,0.,24.0,0.,24.0